Terug naar catalogus

STARLINK-36903

ActiefCommunicatieVLEO
NORAD 68001·PAYLOAD·🇺🇸 United States

Gelanceerd Feb 27, 2026 vanaf Vandenberg Space Force Base

Loading…

Volgende Passages (komende 24 uur)

TLE

VersSource: CelesTrak SupGP

Epoch: Sep 15, 2026, 02:59 UTC

1 68001C 26039R   26258.12479167 -.00030840  00000+0 -11167-2 0  2587
2 68001  43.0007  59.5099 0001527 271.9363 331.1007 15.27603470    15

Volg STARLINK-36903 in realtime met AllMySat

Download on the App Store